SB KEPS @ AMSAT $ORB11090.O Orbital Elements 11090.OSCAR
HR AMSAT ORBITAL ELEMENTS FOR OSCAR SATELLITES FROM WA5QGD FORT WORTH,TX March 31, 2011 Send Subscribe/unsubscribe to KEPS at http://www.amsat.org/mailman/listinfo/keps BID: ORB11090.O TO ALL RADIO AMATEURS BT
Satellite: AO-07 Catalog number: 07530 Epoch time: 11089.78661474 Element set: 0041 Inclination: 101.3947 deg RA of node: 099.4203 deg Eccentricity: 0.0012099 Arg of perigee: 073.2067 deg Mean anomaly: 287.0325 deg Mean motion: 12.53581682 rev/day Decay rate: -2.7e-07 rev/day^2 Epoch rev: 66436 Checksum: 301
Satellite: FO-29 Catalog number: 24278 Epoch time: 11089.96383407 Element set: 0545 Inclination: 098.5350 deg RA of node: 244.6778 deg Eccentricity: 0.0351405 Arg of perigee: 099.9878 deg Mean anomaly: 264.1104 deg Mean motion: 13.52959490 rev/day Decay rate: 3.5e-07 rev/day^2 Epoch rev: 72188 Checksum: 353
Satellite: SO-33 Catalog number: 25509 Epoch time: 11089.81735985 Element set: 0935 Inclination: 031.4369 deg RA of node: 327.5592 deg Eccentricity: 0.0354340 Arg of perigee: 276.1724 deg Mean anomaly: 079.8653 deg Mean motion: 14.28375892 rev/day Decay rate: 8.7e-07 rev/day^2 Epoch rev: 64906 Checksum: 354
Satellite: RS-22 Catalog number: 27939 Epoch time: 11090.62631783 Element set: 123 Inclination: 097.8569 deg RA of node: 308.2927 deg Eccentricity: 0.0012622 Arg of perigee: 228.3379 deg Mean anomaly: 131.6753 deg Mean motion: 14.63537073 rev/day Decay rate: 3.84e-06 rev/day^2 Epoch rev: 40099 Checksum: 321
Satellite: VO-52 Catalog number: 28650 Epoch time: 11089.84369595 Element set: 755 Inclination: 097.6507 deg RA of node: 136.4504 deg Eccentricity: 0.0028169 Arg of perigee: 059.5472 deg Mean anomaly: 300.8509 deg Mean motion: 14.81963676 rev/day Decay rate: 1.061e-05 rev/day^2 Epoch rev: 31914 Checksum: 339
Satellite: SO-67 Catalog number: 35870 Epoch time: 11090.59020259 Element set: 697 Inclination: 097.2902 deg RA of node: 136.4917 deg Eccentricity: 0.0003490 Arg of perigee: 142.4985 deg Mean anomaly: 006.6038 deg Mean motion: 15.21505057 rev/day Decay rate: 2.209e-05 rev/day^2 Epoch rev: 8514 Checksum: 304
Satellite: HO-68 Catalog number: 36122 Epoch time: 11090.71063023 Element set: 243 Inclination: 100.4231 deg RA of node: 152.6715 deg Eccentricity: 0.0007968 Arg of perigee: 044.9174 deg Mean anomaly: 315.2579 deg Mean motion: 13.16284977 rev/day Decay rate: -4.4e-07 rev/day^2 Epoch rev: 6204 Checksum: 279
/EX SB KEPS @ AMSAT $ORB11090.D Orbital Elements 11090.MICROS
HR AMSAT ORBITAL ELEMENTS FOR THE MICROSATS FROM WA5QGD FORT WORTH,TX March 31, 2011 Send Subscribe/unsubscribe to KEPS at http://www.amsat.org/mailman/listinfo/keps BID: ORB11090.D TO ALL RADIO AMATEURS BT
Satellite: UO-11 Catalog number: 14781 Epoch time: 11090.79248775 Element set: 509 Inclination: 098.0144 deg RA of node: 147.7161 deg Eccentricity: 0.0009823 Arg of perigee: 033.9634 deg Mean anomaly: 326.2205 deg Mean motion: 14.79918136 rev/day Decay rate: 4.16e-06 rev/day^2 Epoch rev: 45434 Checksum: 310
Satellite: AO-16 Catalog number: 20439 Epoch time: 11090.80831664 Element set: 153 Inclination: 098.3758 deg RA of node: 043.0446 deg Eccentricity: 0.0011741 Arg of perigee: 036.2802 deg Mean anomaly: 323.9176 deg Mean motion: 14.31904779 rev/day Decay rate: 1.13e-06 rev/day^2 Epoch rev: 10654 Checksum: 284
Satellite: LO-19 Catalog number: 20442 Epoch time: 11089.92184228 Element set: 0064 Inclination: 098.3383 deg RA of node: 046.8439 deg Eccentricity: 0.0012546 Arg of perigee: 033.1291 deg Mean anomaly: 327.0672 deg Mean motion: 14.32131950 rev/day Decay rate: 1.99e-06 rev/day^2 Epoch rev: 10659 Checksum: 298
Satellite: AO-27 Catalog number: 22825 Epoch time: 11089.88793736 Element set: 0794 Inclination: 098.5233 deg RA of node: 035.9838 deg Eccentricity: 0.0009023 Arg of perigee: 141.2070 deg Mean anomaly: 218.9754 deg Mean motion: 14.29334581 rev/day Decay rate: 2.01e-06 rev/day^2 Epoch rev: 91300 Checksum: 315
Satellite: IO-26 Catalog number: 22826 Epoch time: 11089.97168613 Element set: 0524 Inclination: 098.5189 deg RA of node: 036.5675 deg Eccentricity: 0.0009479 Arg of perigee: 135.6890 deg Mean anomaly: 224.5048 deg Mean motion: 14.29594388 rev/day Decay rate: 5.7e-07 rev/day^2 Epoch rev: 91313 Checksum: 350
Satellite: GO-32 Catalog number: 25397 Epoch time: 11090.43707719 Element set: 442 Inclination: 098.3228 deg RA of node: 087.1711 deg Eccentricity: 0.0002046 Arg of perigee: 118.6822 deg Mean anomaly: 241.4561 deg Mean motion: 14.23201279 rev/day Decay rate: 8.5e-07 rev/day^2 Epoch rev: 66090 Checksum: 286
Satellite: NO-44 Catalog number: 26931 Epoch time: 11089.75833557 Element set: 0716 Inclination: 067.0515 deg RA of node: 185.6122 deg Eccentricity: 0.0007212 Arg of perigee: 268.6560 deg Mean anomaly: 091.3716 deg Mean motion: 14.29644151 rev/day Decay rate: 1.98e-06 rev/day^2 Epoch rev: 49571 Checksum: 317
Satellite: SO-50 Catalog number: 27607 Epoch time: 11089.78580134 Element set: 427 Inclination: 064.5576 deg RA of node: 205.9010 deg Eccentricity: 0.0063948 Arg of perigee: 339.0685 deg Mean anomaly: 020.7813 deg Mean motion: 14.71676659 rev/day Decay rate: 3.60e-06 rev/day^2 Epoch rev: 44455 Checksum: 323
Satellite: CO-55 Catalog number: 27844 Epoch time: 11089.58542434 Element set: 76 Inclination: 098.7080 deg RA of node: 099.4265 deg Eccentricity: 0.0010693 Arg of perigee: 066.8430 deg Mean anomaly: 293.3866 deg Mean motion: 14.20782871 rev/day Decay rate: 1.07e-06 rev/day^2 Epoch rev: 40175 Checksum: 327
Satellite: CO-57 Catalog number: 27848 Epoch time: 11089.51671092 Element set: 0025 Inclination: 098.7139 deg RA of node: 098.5222 deg Eccentricity: 0.0010559 Arg of perigee: 071.2001 deg Mean anomaly: 289.0318 deg Mean motion: 14.20565930 rev/day Decay rate: 8.1e-07 rev/day^2 Epoch rev: 40169 Checksum: 300
Satellite: AO-51 Catalog number: 28375 Epoch time: 11089.84192361 Element set: 0933 Inclination: 098.0907 deg RA of node: 072.4365 deg Eccentricity: 0.0083806 Arg of perigee: 308.5265 deg Mean anomaly: 050.8427 deg Mean motion: 14.40738171 rev/day Decay rate: 1.41e-06 rev/day^2 Epoch rev: 35478 Checksum: 318
Satellite: CP3 Catalog number: 31129 Epoch time: 11089.75326716 Element set: 0833 Inclination: 097.9066 deg RA of node: 118.4778 deg Eccentricity: 0.0103402 Arg of perigee: 065.0686 deg Mean anomaly: 296.1180 deg Mean motion: 14.52410365 rev/day Decay rate: 4.48e-06 rev/day^2 Epoch rev: 20945 Checksum: 306
Satellite: CO-65 Catalog number: 32785 Epoch time: 11089.75590865 Element set: 0952 Inclination: 097.8557 deg RA of node: 155.1265 deg Eccentricity: 0.0016033 Arg of perigee: 072.6561 deg Mean anomaly: 287.6419 deg Mean motion: 14.81885833 rev/day Decay rate: 1.068e-05 rev/day^2 Epoch rev: 15792 Checksum: 356
Satellite: KKS-1 Catalog number: 33493 Epoch time: 11090.49512070 Element set: 445 Inclination: 098.1136 deg RA of node: 218.0357 deg Eccentricity: 0.0018789 Arg of perigee: 293.6984 deg Mean anomaly: 066.2258 deg Mean motion: 14.81442156 rev/day Decay rate: 1.521e-05 rev/day^2 Epoch rev: 11801 Checksum: 297
Satellite: SOHLA-1 Catalog number: 33496 Epoch time: 11089.88703910 Element set: 0382 Inclination: 098.0717 deg RA of node: 200.5468 deg Eccentricity: 0.0007020 Arg of perigee: 021.2699 deg Mean anomaly: 338.8796 deg Mean motion: 14.69576959 rev/day Decay rate: 3.71e-06 rev/day^2 Epoch rev: 11698 Checksum: 340
Satellite: TISAT-1 Catalog number: 36799 Epoch time: 11090.54865444 Element set: 721 Inclination: 098.1083 deg RA of node: 158.0130 deg Eccentricity: 0.0015697 Arg of perigee: 163.5153 deg Mean anomaly: 196.6577 deg Mean motion: 14.80392425 rev/day Decay rate: 9.26e-06 rev/day^2 Epoch rev: 3882 Checksum: 322
Satellite: STUDSAT Catalog number: 36801 Epoch time: 11089.94735493 Element set: 0157 Inclination: 098.1106 deg RA of node: 157.2515 deg Eccentricity: 0.0014538 Arg of perigee: 154.8314 deg Mean anomaly: 205.3612 deg Mean motion: 14.80196068 rev/day Decay rate: 2.398e-05 rev/day^2 Epoch rev: 03872 Checksum: 304
Satellite: RAX Catalog number: 37223 Epoch time: 11089.46431449 Element set: 0122 Inclination: 071.9716 deg RA of node: 212.4675 deg Eccentricity: 0.0019443 Arg of perigee: 068.5267 deg Mean anomaly: 291.7923 deg Mean motion: 14.77296529 rev/day Decay rate: 6.60e-06 rev/day^2 Epoch rev: 01926 Checksum: 313
Satellite: OOREOS Catalog number: 37224 Epoch time: 11076.42207246 Element set: 0109 Inclination: 071.9712 deg RA of node: 241.3960 deg Eccentricity: 0.0017800 Arg of perigee: 096.5373 deg Mean anomaly: 263.7815 deg Mean motion: 14.76929834 rev/day Decay rate: 8.68e-06 rev/day^2 Epoch rev: 01732 Checksum: 300
Satellite: FAST1 Catalog number: 37227 Epoch time: 11090.48618085 Element set: 0012 Inclination: 071.9703 deg RA of node: 210.5839 deg Eccentricity: 0.0015485 Arg of perigee: 064.3066 deg Mean anomaly: 295.9667 deg Mean motion: 14.76533600 rev/day Decay rate: 3.98e-06 rev/day^2 Epoch rev: 00129 Checksum: 299
Satellite: NANOSALD Catalog number: 37361 Epoch time: 11080.41235428 Element set: 0097 Inclination: 071.9730 deg RA of node: 232.2252 deg Eccentricity: 0.0024394 Arg of perigee: 042.6308 deg Mean anomaly: 317.6744 deg Mean motion: 14.82560370 rev/day Decay rate: 5.6672e-04 rev/day^2 Epoch rev: 00903 Checksum: 278
Satellite: FAST2 Catalog number: 37380 Epoch time: 11090.48759118 Element set: 0127 Inclination: 071.9735 deg RA of node: 210.5936 deg Eccentricity: 0.0016073 Arg of perigee: 060.8422 deg Mean anomaly: 299.4318 deg Mean motion: 14.76302050 rev/day Decay rate: 3.10e-06 rev/day^2 Epoch rev: 01939 Checksum: 283
/EX SB KEPS @ AMSAT $ORB11090.W Orbital Elements 11090.WEATHER
HR AMSAT ORBITAL ELEMENTS FOR WEATHER SATELLITES FROM WA5QGD FORT WORTH,TX March 31, 2011 Send Subscribe/unsubscribe to KEPS at http://www.amsat.org/mailman/listinfo/keps BID: ORB11090.W TO ALL RADIO AMATEURS BT
